Regional Weather Roundup
Issued by NWS

Home | Current Version | Previous Version | Graphics & Text | Print | Product List | Glossary On
Versions: 1 2 3 4 5 6 7 8 9 10 11 12 13 14 15 16 17 18 19 20 21 22 23 24 25 26 27 28 29 30 31 32 33 34 35 36 37 38 39 40 41 42 43 44 45 46 47 48 49 50
000
ASUS43 KLSX 080557
RWRMO

WEATHER SUMMARY FOR MISSOURI
NATIONAL WEATHER SERVICE SPRINGFIELD MO
1200 AM CST THU DEC 08 2016

NOTE: "FAIR" INDICATES FEW OR NO CLOUDS BELOW 12,000 FEET WITH NO
       SIGNIFICANT WEATHER AND/OR OBSTRUCTIONS TO VISIBILITY.
       CURRENT SKY AND/OR WEATHER CONDITIONS ARE NOT AVAILABLE FOR
       CHILLICOTHE AND FARMINGTON.

MOZ001>031-035>038-043-044-053-054-080700-
...NORTHERN AND WESTERN MISSOURI...

CITY           SKY/WX    TMP DP  RH WIND       PRES   REMARKS
KANSAS CTY INT CLEAR     20   7  57 NW10      30.46S WCI   9
6HR MIN TEMP:  18; 6HR MAX TEMP:  24;

LEE`S SUMMIT   CLEAR     21  10  62 NW12      30.47R WCI   9
6HR MIN TEMP:  20; 6HR MAX TEMP:  25;

ST JOSEPH      CLEAR     19   8  62 NW8       30.49R WCI   9
6HR MIN TEMP:  18; 6HR MAX TEMP:  23;

CHILLICOTHE      N/A     21   9  59 W10       30.45R WCI  10
6HR MIN TEMP:  20; 6HR MAX TEMP:  26;


$$
MOZ066>068-077>081-088>096-101>105-080700-
...SOUTHWEST MISSOURI...

CITY           SKY/WX    TMP DP  RH WIND       PRES   REMARKS
SPRINGFIELD    CLEAR     24  18  77 N10       30.43R WCI  14
6HR MIN TEMP:  24; 6HR MAX TEMP:  31; 6HR PCP: TRACE;

JOPLIN         CLEAR     22  19  89 N7        30.50R WCI  13
6HR MIN TEMP:  21; 6HR MAX TEMP:  29; 6HR PCP: TRACE;


$$
MOZ032>034-039>042-045>050-055>058-069>072-080700-
...CENTRAL MISSOURI...

CITY           SKY/WX    TMP DP  RH WIND       PRES   REMARKS
COLUMBIA       NOT AVBL
JEFFERSON CITY CLEAR     24  11  57 NW12      30.45R WCI  13
6HR MIN TEMP:  24; 6HR MAX TEMP:  30;

ROLLA          CLEAR     23  15  71 NW13      30.38R WCI  11
6HR MIN TEMP:  23; 6HR MAX TEMP:  30; 6HR PCP: TRACE;

SEDALIA        CLEAR     21  12  68 W8        30.46R WCI  11
6HR MIN TEMP:  21; 6HR MAX TEMP:  28;

WARRENSBURG    CLEAR     21  12  68 W5        30.47S WCI  15

$$
MOZ051-052-059>065-080700-
...EAST CENTRAL MISSOURI...

CITY           SKY/WX    TMP DP  RH WIND       PRES   REMARKS
ST LOUIS INTL  NOT AVBL

$$
MOZ072>076-082>087-097>100-106>115-080700-
...SOUTH CENTRAL AND SOUTHEAST MISSOURI...

CITY           SKY/WX    TMP DP  RH WIND       PRES   REMARKS
CAPE GIRARDEAU CLOUDY    35  22  58 NW7       30.33S WCI  29
6HR MIN TEMP:  35; 6HR MAX TEMP:  37;

POPLAR BLUFF   CLOUDY    37  23  56 N14       30.34S WCI  28
6HR MIN TEMP:  37; 6HR MAX TEMP:  40;

WEST PLAINS    MOCLDY    30  24  78 NW13G21   30.37R WCI  20
6HR MIN TEMP:  30; 6HR MAX TEMP:  35;


$$


USA.gov is the U.S. government's official web portal to all federal, state and local government web resources and services.